Harrisburg, IL

2:12 AM CDT on May 23, 2017 (GMT -0500)
Harrisburg-Raleigh

Weather History for KHSB - February, 2014

Change the Weather History Date:

Friday, February 21, 2014

  Actual Average (KMWA) Record (KMWA)
Temperature  
Mean Temperature 44 °F -  
Max Temperature 52 °F 51 °F 72 °F (1983)
Min Temperature 36 °F 29 °F 14 °F (1988)
Degree Days  
Heating Degree Days 21    
Moisture  
Dew Point 25 °F    
Average Humidity 50    
Maximum Humidity 76    
Minimum Humidity 27    
Precipitation  
Precipitation 0.30 in - - ()
Sea Level Pressure  
Sea Level Pressure 29.94 in    
Wind  
Wind Speed 11 mph (SW)    
Max Wind Speed 21 mph    
Max Gust Speed 30 mph    
Visibility 10 miles    
Events      
Averages and records for this station are not official NWS values.
T = Trace of Precipitation, MM = Missing Value Source: NWS Daily Summary

Daily Weather History Graph

Daily Weather History Graph

Search for Another Location

Airport or City:

Trip Planner

Search our weather history database for the weather conditions in past years. The results will help you decide how hot, cold, wet, or windy it might be!

Date:

Astronomy

Feb. 21, 2014 Rise Set
Actual Time 6:36 AM CST 5:39 PM CST
Civil Twilight 6:09 AM CST 6:06 PM CST
Nautical Twilight 5:39 AM CST 6:36 PM CST
Astronomical Twilight 5:08 AM CST 7:07 PM CST
Moon No Moon Rise 10:07 AM CST (2/21)
Length of Visible Light 11h 56m
Length of Day
11h 03m
Waning Gibbous, 60% of the Moon is Illuminated
Feb 21
Waning Gibbous
Feb 22
Last Quarter
Mar 1
New
Mar 8
First Quarter
Mar 16
Full

Hourly Weather History & Observations

Time (CST) Temp. Windchill Dew Point Humidity Pressure Visibility Wind Dir Wind Speed Gust Speed Precip Events Conditions
12:15 AM 37.9 °F 34.4 °F 28.8 °F 70% 29.81 in 10.0 mi SSW 4.6 mph - N/A   Clear
12:35 AM 37.0 °F 31.6 °F 29.1 °F 73% 29.82 in 10.0 mi SSW 6.9 mph - N/A   Clear
12:55 AM 37.8 °F 33.3 °F 28.9 °F 71% 29.83 in 10.0 mi SSW 5.8 mph - N/A   Clear
1:15 AM 36.0 °F 31.1 °F 29.1 °F 76% 29.83 in 10.0 mi SSW 5.8 mph - N/A   Clear
1:35 AM 36.3 °F 30.1 °F 29.3 °F 76% 29.83 in 10.0 mi SW 8.1 mph - N/A   Clear
1:55 AM 36.7 °F 30.5 °F 29.3 °F 75% 29.84 in 10.0 mi SW 8.1 mph - N/A   Scattered Clouds
2:15 AM 36.9 °F 31.4 °F 29.1 °F 74% 29.84 in 10.0 mi SW 6.9 mph - N/A   Clear
2:35 AM 38.3 °F 30.5 °F 28.9 °F 69% 29.84 in 10.0 mi SW 12.7 mph 18.4 mph N/A   Clear
2:55 AM 38.5 °F 31.1 °F 29.1 °F 69% 29.84 in 10.0 mi SW 11.5 mph - N/A   Clear
3:20 AM 38.1 °F 30.7 °F 29.3 °F 71% 29.84 in 10.0 mi SW 11.5 mph - N/A   Clear
3:35 AM 37.8 °F 30.2 °F 29.3 °F 72% 29.84 in 10.0 mi SW 11.5 mph 16.1 mph N/A   Clear
3:55 AM 38.1 °F 30.7 °F 29.1 °F 70% 29.85 in 10.0 mi SW 11.5 mph 17.3 mph N/A   Clear
4:15 AM 37.8 °F 30.2 °F 28.8 °F 70% 29.85 in 10.0 mi SW 11.5 mph - N/A   Clear
4:35 AM 37.8 °F 31.3 °F 28.6 °F 69% 29.86 in 10.0 mi SW 9.2 mph - N/A   Clear
4:55 AM 37.4 °F 29.8 °F 28.4 °F 70% 29.87 in 10.0 mi SW 11.5 mph 16.1 mph N/A   Clear
5:15 AM 37.4 °F 30.3 °F 28.2 °F 69% 29.88 in 10.0 mi WSW 10.4 mph - N/A   Clear
5:35 AM 37.6 °F 30.5 °F 27.3 °F 66% 29.88 in 10.0 mi WSW 10.4 mph - N/A   Clear
5:55 AM 37.0 °F 30.4 °F 26.6 °F 66% 29.89 in 10.0 mi SW 9.2 mph - N/A   Clear
6:15 AM 36.7 °F 29.4 °F 27.0 °F 68% 29.89 in 10.0 mi SW 10.4 mph - N/A   Clear
6:35 AM 36.0 °F 29.0 °F 26.6 °F 69% 29.89 in 10.0 mi WSW 9.2 mph - N/A   Clear
6:55 AM 36.5 °F 28.7 °F 26.2 °F 66% 29.92 in 10.0 mi SW 11.5 mph 16.1 mph N/A   Clear
7:15 AM 36.9 °F 29.1 °F 25.3 °F 63% 29.92 in 10.0 mi WSW 11.5 mph - N/A   Clear
7:35 AM 37.9 °F 30.0 °F 23.5 °F 56% 29.92 in 10.0 mi West 12.7 mph - N/A   Clear
7:55 AM 38.3 °F 30.5 °F 23.2 °F 55% 29.94 in 10.0 mi WSW 12.7 mph - N/A   Clear
8:15 AM 39.2 °F 29.8 °F 21.9 °F 50% 29.95 in 10.0 mi West 18.4 mph - N/A   Clear
8:35 AM 39.6 °F 31.7 °F 20.1 °F 46% 29.95 in 10.0 mi West 13.8 mph - N/A   Clear
8:55 AM 40.3 °F 31.9 °F 17.8 °F 40% 29.97 in 10.0 mi West 16.1 mph 23.0 mph N/A   Clear
9:15 AM 40.5 °F 31.8 °F 16.2 °F 37% 29.98 in 10.0 mi West 17.3 mph 25.3 mph N/A   Clear
9:40 AM 41.4 °F 32.4 °F 16.5 °F 37% 29.98 in 10.0 mi West 19.6 mph 29.9 mph N/A   Clear
9:55 AM 42.1 °F 33.6 °F 18.7 °F 39% 29.98 in 10.0 mi West 18.4 mph 27.6 mph N/A   Clear
10:15 AM 43.2 °F 35.6 °F 19.0 °F 38% 29.99 in 10.0 mi West 16.1 mph - N/A   Clear
10:35 AM 43.7 °F 35.7 °F 18.3 °F 36% 30.01 in 10.0 mi West 18.4 mph 25.3 mph N/A   Clear
10:55 AM 44.8 °F 37.1 °F 20.8 °F 39% 30.01 in 10.0 mi West 18.4 mph - N/A   Clear
11:15 AM 45.0 °F 36.9 °F 18.3 °F 35% 30.01 in 10.0 mi West 20.7 mph 28.8 mph N/A   Clear
11:35 AM 46.4 °F 39.2 °F 20.8 °F 36% 30.01 in 10.0 mi West 18.4 mph 21.9 mph N/A   Clear
11:55 AM 47.3 °F - 21.4 °F 36% 30.00 in 10.0 mi West 17.3 mph 23.0 mph N/A   Clear
12:15 PM 48.0 °F - 21.7 °F 36% 30.00 in 10.0 mi WNW 15.0 mph 20.7 mph N/A   Clear
12:35 PM 48.6 °F - 21.6 °F 35% 30.00 in 10.0 mi West 17.3 mph 23.0 mph N/A   Clear
12:55 PM 48.9 °F - 20.8 °F 33% 30.00 in 10.0 mi West 16.1 mph 24.2 mph N/A   Clear
1:15 PM 49.5 °F - 20.3 °F 32% 29.99 in 10.0 mi WSW 13.8 mph - N/A   Clear
1:35 PM 50.0 °F - 19.6 °F 30% 29.99 in 10.0 mi WSW 15.0 mph - N/A   Clear
1:55 PM 50.7 °F - 21.0 °F 31% 29.98 in 10.0 mi West 15.0 mph 21.9 mph N/A   Clear
2:15 PM 51.1 °F - 20.5 °F 30% 29.97 in 10.0 mi West 13.8 mph 19.6 mph N/A   Clear
2:35 PM 51.6 °F - 18.5 °F 27% 29.97 in 10.0 mi WSW 13.8 mph 18.4 mph N/A   Clear
2:55 PM 52.3 °F - 22.1 °F 31% 29.96 in 10.0 mi West 12.7 mph - N/A   Clear
3:15 PM 52.7 °F - 22.3 °F 31% 29.96 in 10.0 mi SW 6.9 mph - N/A   Clear
3:35 PM 52.3 °F - 20.3 °F 28% 29.96 in 10.0 mi WSW 6.9 mph - N/A   Clear
3:55 PM 52.2 °F - 21.4 °F 30% 29.96 in 10.0 mi SSW 13.8 mph - N/A   Clear
4:15 PM 51.8 °F - 23.0 °F 33% 29.97 in 10.0 mi SSW 10.4 mph - N/A   Clear
4:35 PM 50.5 °F - 23.7 °F 35% 29.97 in 10.0 mi SSW 12.7 mph - N/A   Clear
4:55 PM 50.0 °F - 23.0 °F 35% 29.97 in 10.0 mi SSW 16.1 mph 21.9 mph N/A   Clear
5:15 PM 49.1 °F - 23.0 °F 36% 29.98 in 10.0 mi SSW 12.7 mph 19.6 mph N/A   Clear
5:35 PM 47.8 °F - 23.9 °F 39% 29.98 in 10.0 mi South 11.5 mph 16.1 mph N/A   Clear
5:55 PM 46.9 °F - 24.8 °F 42% 29.98 in 10.0 mi South 10.4 mph - N/A   Clear
6:15 PM 45.5 °F 40.8 °F 26.1 °F 47% 29.98 in 10.0 mi South 9.2 mph - N/A   Clear
6:35 PM 45.9 °F 40.4 °F 25.7 °F 45% 29.98 in 10.0 mi South 11.5 mph - N/A   Clear
6:55 PM 45.7 °F 41.0 °F 25.3 °F 45% 29.98 in 10.0 mi South 9.2 mph - N/A   Clear
7:15 PM 44.8 °F 39.4 °F 25.2 °F 46% 29.98 in 10.0 mi South 10.4 mph - N/A   Clear
7:35 PM 44.4 °F 39.5 °F 25.3 °F 47% 29.98 in 10.0 mi South 9.2 mph - N/A   Clear
7:55 PM 44.6 °F 39.7 °F 25.0 °F 46% 29.98 in 10.0 mi South 9.2 mph - N/A   Clear
8:15 PM 44.6 °F 39.2 °F 25.7 °F 48% 29.98 in 10.0 mi SSW 10.4 mph - N/A   Clear
8:35 PM 44.4 °F 39.0 °F 26.4 °F 49% 29.99 in 10.0 mi SSW 10.4 mph - N/A   Clear
8:55 PM 43.7 °F 38.1 °F 27.5 °F 53% 29.99 in 10.0 mi SSW 10.4 mph - N/A   Clear
9:15 PM 44.1 °F 38.1 °F 27.7 °F 53% 29.99 in 10.0 mi SSW 11.5 mph - N/A   Clear
9:35 PM 44.1 °F 38.1 °F 28.2 °F 54% 29.99 in 10.0 mi SSW 11.5 mph - N/A   Clear
9:55 PM 44.4 °F 38.2 °F 28.2 °F 53% 29.99 in 10.0 mi SSW 12.7 mph 19.6 mph N/A   Clear
10:15 PM 43.7 °F 38.1 °F 28.4 °F 55% 29.99 in 10.0 mi SW 10.4 mph 16.1 mph N/A   Clear
10:35 PM 43.9 °F 37.5 °F 28.2 °F 54% 29.99 in 10.0 mi SW 12.7 mph - N/A   Clear
10:55 PM 43.5 °F 37.5 °F 28.4 °F 55% 29.99 in 10.0 mi SSW 11.5 mph - N/A   Clear
11:15 PM 44.4 °F 37.9 °F 27.5 °F 52% 30.00 in 10.0 mi SSW 13.8 mph 19.6 mph N/A   Clear
11:35 PM 43.9 °F 37.2 °F 27.5 °F 53% 30.00 in 10.0 mi SSW 13.8 mph - N/A   Clear
11:55 PM 44.2 °F 38.0 °F 27.3 °F 51% 30.00 in 10.0 mi SSW 12.7 mph 20.7 mph N/A   Clear